Voltar ao catálogo

STARLINK-30857

AtivoComunicaçõesVLEO
NORAD 58595·PAYLOAD·🇺🇸 United States

Lançado Dec 19, 2023 de Cape Canaveral Space Force Station

Loading…

Próximas Passagens (próximas 24 horas)

TLE

AtualizadoSource: CelesTrak SupGP

Época: Sep 15, 2026, 02:32 UTC

1 58595C 23200G   26258.10604167  .00032311  00000+0  11702-2 0  2587
2 58595  42.9997 179.1316 0001404 263.2975 312.2889 15.27566441    10

Acompanhe STARLINK-30857 em tempo real com AllMySat

Download on the App Store